Regional Weather Roundup
Issued by NWS

Home | Current Version | Previous Version | Text Only | Print | Product List | Glossary Off
Versions: 1 2 3 4 5 6 7 8 9 10 11 12 13 14 15 16 17 18 19 20 21 22 23 24 25 26 27 28 29 30 31 32 33 34 35 36 37 38 39 40 41 42 43 44 45 46 47 48 49 50

000
ASUS43 KMKX 251411
RWRWI

WISCONSIN REGIONAL WEATHER ROUNDUP
NATIONAL WEATHER SERVICE MILWAUKEE/SULLIVAN WI
900 AM CDT MON JUL 25 2016

NOTE: "FAIR" INDICATES FEW OR NO CLOUDS BELOW 12,000 FEET WITH NO
SIGNIFICANT WEATHER AND/OR OBSTRUCTIONS TO VISIBILITY.

WIZ001-002-006>008-014>016-023>028-251500-
NORTHWEST WISCONSIN

CITY           SKY/WX    TMP DP  RH WIND       PRES   REMARKS
SUPERIOR ARPT  SUNNY     72  64  75 W7        30.01S
ASHLAND        SUNNY     72  61  68 W9        30.00S
HAYWARD        SUNNY     70  60  70 VRB3      30.04R
SIREN          SUNNY     68  61  77 NW5       30.05R
CUMBERLAND     SUNNY     70  61  73 NW7       30.06R
RICE LAKE      SUNNY     70  62  78 W6        30.07R
CHETEK         SUNNY     71  64  78 NW5       30.05R
LADYSMITH      SUNNY     71  62  73 W8        30.06R
EAU CLAIRE     SUNNY     72  63  73 W5        30.04R
MENOMONIE      SUNNY     73  62  68 W6        30.05S
NEW RICHMOND   SUNNY     72  61  67 W5        30.07R
OSCEOLA        SUNNY     72  62  71 NW6       30.09R
$$

WIZ003>005-009-010-017-018-251500-
NORTH CENTRAL WISCONSIN

CITY           SKY/WX    TMP DP  RH WIND       PRES   REMARKS
MANITOWISH WTR SUNNY     69  59  71 N9        30.02R
ARBOR VITAE    SUNNY     72  62  70 NW6       30.02R
WOODRUFF       SUNNY     72  62  70 NW6       30.02R
RHINELANDER    SUNNY     71  59  65 W10       30.02R
EAGLE RIVER    SUNNY     69  56  61 NW14      30.01R
LAND O LAKES   SUNNY     70  57  64 NW10      30.01R
PHILLIPS       SUNNY     68  61  76 W3        30.03R
TOMAHAWK       SUNNY     69  59  70 NW7       30.03R
MEDFORD        SUNNY     69  65  88 NW8       30.03S
MERRILL        SUNNY     71  63  77 NW7       30.02R
$$

WIZ029-030-035-036-043>047-251500-
CENTRAL WISCONSIN

CITY           SKY/WX    TMP DP  RH WIND       PRES   REMARKS
WAUSAU         SUNNY     72  62  71 NW9       30.00R
MOSINEE        SUNNY     72  64  78 W9        30.03R
MARSHFIELD     SUNNY     72  63  73 W9        30.03R
STEVENS POINT  SUNNY     71  62  73 W6        30.03R
WAUPACA        SUNNY     76  64  66 W7        30.00S
WAUTOMA        SUNNY     74  65  73 NW7       30.02R
WISC RAPIDS    SUNNY     73  62  68 NW7       30.04R
CAMP DOUGLAS   SUNNY     73  66  78 W10       30.03R
$$

WIZ011>013-019>022-031-037>040-048>050-251500-
NORTHEAST WISCONSIN

CITY           SKY/WX    TMP DP  RH WIND       PRES   REMARKS
ANTIGO         SUNNY     70  62  76 NW5       30.02R
SHAWANO        SUNNY     75  63  66 NW7       29.99R
OCONTO         SUNNY     74  64  71 W10       29.95R
STURGEON BAY   SUNNY     74  63  68 W8        29.96R
GREEN BAY      SUNNY     74  67  78 W9        29.97S
MANITOWOC      SUNNY     75  64  68 NW10      29.97S
APPLETON       MOSUNNY   72  63  73 W8        29.98R
CLINTONVILLE   SUNNY     73  61  64 NW6       29.99S
OSHKOSH        SUNNY     74  64  71 NW9       29.99S
$$

WIZ032>034-041-042-053>061-251500-
SOUTHWEST WISCONSIN

CITY           SKY/WX    TMP DP  RH WIND       PRES   REMARKS
LA CROSSE      SUNNY     76  63  64 MISG      30.05R
SPARTA         SUNNY     73  65  78 W6        30.05S
VIROQUA        SUNNY     71  66  83 W5        30.07R
BOSCOBEL       SUNNY     75  67  76 CALM      30.04S
PRAIRIE DU CHI SUNNY     73  63  70 NW7       30.05S
PLATTEVILLE    SUNNY     73  69  88 NW5       30.05S
$$

WIZ056-057-062-063-064-067-068-251500-
SOUTH CENTRAL WISCONSIN

CITY           SKY/WX    TMP DP  RH WIND       PRES   REMARKS
REEDSBURG      SUNNY     73  67  82 NW9       30.03S
BARABOO/DELLS  SUNNY     73  64  74 NW6       30.03S
LONE ROCK      SUNNY     74  66  76 NW8       30.04S
MINERAL POINT  SUNNY     75  68  78 NW6       30.04S
MADISON        MOSUNNY   76  66  71 N6        30.01S
MIDDLETON      SUNNY     76  66  71 NW13      30.03R
WATERTOWN      SUNNY     74  66  75 NW9       30.00S
MONROE         SUNNY     73  64  73 W3        30.04R
JANESVILLE     SUNNY     77  66  69 NW8       30.01R
$$

WIZ051-052-058>065-066-070>072-251500-
SOUTHEAST WISCONSIN

CITY           SKY/WX    TMP DP  RH WIND       PRES   REMARKS
MILWAUKEE      MOSUNNY   79  64  60 NW10      29.98S HX  81
WAUKESHA       SUNNY     70  64  83 W8        30.00S
MILWAUKEE/TIMM SUNNY     77  61  57 W7        29.99S
RACINE         SUNNY     78  65  63 NW7       30.00S HX  80
BURLINGTON     SUNNY     76  66  72 NW6       30.00S
KENOSHA        SUNNY     78  66  66 NW9       29.99S HX  80
FOND DU LAC    SUNNY     76  65  68 NW8       29.99S
SHEBOYGAN      SUNNY     76  65  68 NW7       29.97F
WEST BEND      SUNNY     73  63  68 NW10      29.99S
JUNEAU         SUNNY     73  65  75 NW8       30.02S
$$

LSZ147-162-251500-
LAKE SUPERIOR

STATION/POSITION TIME  TEMP    WIND        PRES    WAVE
                       AIR SEA DIR/SP/G            HT/PER
                 (UTC) (F)     (DEG/KT/KT) (MB)    (FT/S)
W MID LAKE BUOY  1350   63 59  260/ 10/ 12 1013.1R   2/ 3
DEVILS ISLAND    1400   64     240/ 15/ 17 1015.0R
SAXON HARBOR     1340   71     260/  3/  7 1015.6R
$$

LMZ867-665-643>646-251500-
LAKE MICHIGAN

STATION/POSITION TIME  TEMP    WIND        PRES    WAVE
                       AIR SEA DIR/SP/G            HT/PER
                 (UTC) (F)     (DEG/KT/KT) (MB)    (FT/S)
CHAMBERS ISLAND  1300   73     230/  4/  7 1013.2R
N MID LAKE BUOY  1350   69 68  260/ 12/ 12 1011.9R   2/ 5
NORTHPORT PIER   1300   73     280/  7/ 13 1012.9R
ALGOMA LAKESHORE 1343          330/  6/  9   N/A
KEWAUNEE LAKESHO 1300   72     290/  7/ 11 1013.9R
SHEBOYGAN LAKESH 1400   75     300/ 10/ 12 1014.6S
PORT WASHINGTON  1340   77     300/  6/ 12 1015.6S
MILWAUKEE LAKESH 1310   75     290/  4/  5   N/A
S MID LAKE BUOY  1350   72 72  320/ 14/ 17 1013.8S   2/ 4
KENOSHA   LAKESH 1400   76     330/ 14/ 17 1014.9R
$$

TC  - TEMPERATURE IN CELSIUS
VSB - VISIBILITY IN STATUTE MILES
WCI - WIND CHILL INDEX
HX  - HEAT INDEX





USA.gov is the U.S. government's official web portal to all federal, state and local government web resources and services.